,,PA_Meas_PMT16A,,PR_Meas_QMR101_102,,RH_Meas_QMH101,,SR_Meas_QMS101,,TA_Meas_QMH101,,GenWind,,GenWind,
time,status,PA,status,PR,status,RH,status,SR,status,TA,status,DirAvg,status,SpdAvg,
2012-06-09, 00:00:04,VALID,918.59,VALID,0,VALID,97.29,VALID,0,VALID,19.2543,VALID,4,VALID,0,
2012-06-09, 00:01:04,VALID,918.588,VALID,0,VALID,97.2824,VALID,0,VALID,19.2738,VALID,7,VALID,0,
2012-06-09, 00:02:04,VALID,918.603,VALID,0,VALID,97.2748,VALID,0,VALID,19.2738,VALID,7,VALID,0,
2012-06-09, 00:03:04,VALID,918.564,VALID,0,VALID,97.29,VALID,0,VALID,19.2738,VALID,15,VALID,0,
2012-06-09, 00:04:04,VALID,918.576,VALID,0,VALID,97.2824,VALID,0,VALID,19.2528,VALID,7,VALID,0,
2012-06-09, 00:05:04,VALID,918.539,VALID,0,VALID,97.2824,VALID,0,VALID,19.2334,VALID,9,VALID,0,
2012-06-09, 00:06:04,VALID,918.578,VALID,0,VALID,97.29,VALID,0,VALID,19.2543,VALID,9,VALID,0,
2012-06-09, 00:07:04,VALID,918.584,VALID,0,VALID,97.2748,VALID,0,VALID,19.1944,VALID,9,VALID,0,
2012-06-09, 00:08:04,VALID,918.594,VALID,0,VALID,97.2977,VALID,0,VALID,19.2334,VALID,10,VALID,0,
2012-06-09, 00:09:04,VALID,918.599,VALID,0,VALID,97.2595,VALID,0,VALID,19.2334,VALID,18,VALID,0,
2012-06-09, 00:10:04,VALID,918.609,VALID,0,VALID,97.2672,VALID,0,VALID,19.2334,VALID,1,VALID,0,
2012-06-09, 00:11:04,VALID,918.628,VALID,0,VALID,97.2748,VALID,0,VALID,19.2543,VALID,1,VALID,0,
2012-06-09, 00:12:04,VALID,918.592,VALID,0,VALID,97.2443,VALID,0.107441,VALID,19.2139,VALID,31,VALID,0,
2012-06-09, 00:13:04,VALID,918.626,VALID,0,VALID,97.2443,VALID,0,VALID,19.2348,VALID,19,VALID,0,
2012-06-09, 00:14:04,VALID,918.611,VALID,0,VALID,97.1986,VALID,0,VALID,19.2139,VALID,19,VALID,0,
2012-06-09, 00:15:04,VALID,918.616,VALID,0,VALID,97.2138,VALID,0,VALID,19.2153,VALID,19,VALID,0,
2012-06-09, 00:16:04,VALID,918.62,VALID,0,VALID,97.2138,VALID,0,VALID,19.1958,VALID,28,VALID,0,
2012-06-09, 00:17:04,VALID,918.612,VALID,0,VALID,97.2367,VALID,0.107441,VALID,19.2153,VALID,33,VALID,0,
2012-06-09, 00:18:04,VALID,918.642,VALID,0,VALID,97.2214,VALID,0,VALID,19.2153,VALID,33,VALID,0,
2012-06-09, 00:19:04,VALID,918.624,VALID,0,VALID,97.2062,VALID,0,VALID,19.2153,VALID,33,VALID,0,
2012-06-09, 00:20:04,VALID,918.632,VALID,0,VALID,97.2138,VALID,0,VALID,19.2348,VALID,33,VALID,0,
2012-06-09, 00:21:04,VALID,918.603,VALID,0,VALID,97.1681,VALID,0,VALID,19.2139,VALID,33,VALID,0,
2012-06-09, 00:22:04,VALID,918.616,VALID,0,VALID,97.1681,VALID,0,VALID,19.1958,VALID,31,VALID,0,
2012-06-09, 00:23:04,VALID,918.587,VALID,0,VALID,97.1604,VALID,0,VALID,19.1958,VALID,31,VALID,0,
2012-06-09, 00:24:04,VALID,918.612,VALID,0,VALID,97.1299,VALID,0,VALID,19.2153,VALID,31,VALID,0,
2012-06-09, 00:25:04,VALID,918.586,VALID,0,VALID,97.1299,VALID,0,VALID,19.2153,VALID,31,VALID,0,
2012-06-09, 00:26:04,VALID,918.555,VALID,0,VALID,97.1071,VALID,0,VALID,19.2153,VALID,31,VALID,0,
2012-06-09, 00:27:04,VALID,918.544,VALID,0,VALID,97.1223,VALID,0,VALID,19.2153,VALID,31,VALID,0,
2012-06-09, 00:28:04,VALID,918.525,VALID,0,VALID,97.0842,VALID,0,VALID,19.2153,VALID,31,VALID,0,
2012-06-09, 00:29:04,VALID,918.502,VALID,0,VALID,97.069,VALID,0,VALID,19.1944,VALID,31,VALID,0,
2012-06-09, 00:30:04,VALID,918.488,VALID,0,VALID,97.0842,VALID,0.107441,VALID,19.1749,VALID,31,VALID,0,
2012-06-09, 00:31:04,VALID,918.484,VALID,0,VALID,97.0613,VALID,0,VALID,19.1958,VALID,31,VALID,0,
2012-06-09, 00:32:04,VALID,918.444,VALID,0,VALID,97.0461,VALID,0,VALID,19.1763,VALID,31,VALID,0,
2012-06-09, 00:33:04,VALID,918.432,VALID,0,VALID,97.0537,VALID,0,VALID,19.1763,VALID,31,VALID,0,
2012-06-09, 00:34:04,VALID,918.434,VALID,0,VALID,97.0385,VALID,0,VALID,19.1554,VALID,23,VALID,0,
2012-06-09, 00:35:04,VALID,918.414,VALID,0,VALID,97.0385,VALID,0,VALID,19.1763,VALID,8,VALID,0,
2012-06-09, 00:36:04,VALID,918.411,VALID,0,VALID,97.069,VALID,0,VALID,19.1359,VALID,13,VALID,0,
2012-06-09, 00:37:04,VALID,918.382,VALID,0,VALID,97.0842,VALID,0,VALID,19.1554,VALID,16,VALID,0,
2012-06-09, 00:38:04,VALID,918.4,VALID,0,VALID,97.1147,VALID,0,VALID,19.1554,VALID,19,VALID,0,
2012-06-09, 00:39:04,VALID,918.373,VALID,0,VALID,97.0842,VALID,0,VALID,19.1359,VALID,19,VALID,0,
2012-06-09, 00:40:04,VALID,918.375,VALID,0,VALID,97.1071,VALID,0,VALID,19.1359,VALID,19,VALID,0,
2012-06-09, 00:41:04,VALID,918.335,VALID,0,VALID,97.0842,VALID,0,VALID,19.1373,VALID,20,VALID,0,
2012-06-09, 00:42:04,VALID,918.288,VALID,0,VALID,97.1071,VALID,0,VALID,19.1149,VALID,14,VALID,0,
2012-06-09, 00:43:04,VALID,918.299,VALID,0,VALID,97.0994,VALID,0,VALID,19.1568,VALID,3,VALID,0,
2012-06-09, 00:44:04,VALID,918.273,VALID,0,VALID,97.069,VALID,0,VALID,19.1568,VALID,3,VALID,0,
2012-06-09, 00:45:04,VALID,918.239,VALID,0,VALID,97.0766,VALID,0,VALID,19.1373,VALID,3,VALID,0,
2012-06-09, 00:46:04,VALID,918.262,VALID,0,VALID,97.1071,VALID,0,VALID,19.1568,VALID,3,VALID,0,
2012-06-09, 00:47:04,VALID,918.238,VALID,0,VALID,97.0994,VALID,0,VALID,19.1568,VALID,3,VALID,0,
2012-06-09, 00:48:04,VALID,918.244,VALID,0,VALID,97.0994,VALID,0,VALID,19.1568,VALID,3,VALID,0,
2012-06-09, 00:49:04,VALID,918.211,VALID,0,VALID,97.0537,VALID,0,VALID,19.1568,VALID,3,VALID,0,
2012-06-09, 00:50:04,VALID,918.241,VALID,0,VALID,97.069,VALID,0,VALID,19.1373,VALID,3,VALID,0,
2012-06-09, 00:51:04,VALID,918.236,VALID,0,VALID,97.069,VALID,0,VALID,19.1763,VALID,3,VALID,0,
2012-06-09, 00:52:04,VALID,918.227,VALID,0,VALID,97.0461,VALID,0,VALID,19.1568,VALID,3,VALID,0,
2012-06-09, 00:53:04,VALID,918.253,VALID,0,VALID,97.0613,VALID,0,VALID,19.1763,VALID,3,VALID,0,
2012-06-09, 00:54:04,VALID,918.224,VALID,0,VALID,97.0537,VALID,0,VALID,19.1568,VALID,15,VALID,0,
2012-06-09, 00:55:04,VALID,918.257,VALID,0,VALID,97.0766,VALID,0,VALID,19.1373,VALID,15,VALID,0,
2012-06-09, 00:56:04,VALID,918.22,VALID,0,VALID,97.0613,VALID,0,VALID,19.1373,VALID,15,VALID,0,
2012-06-09, 00:57:04,VALID,918.209,VALID,0,VALID,97.0766,VALID,0,VALID,19.1373,VALID,15,VALID,0,
2012-06-09, 00:58:04,VALID,918.239,VALID,0,VALID,97.0918,VALID,0,VALID,19.1583,VALID,15,VALID,0,
2012-06-09, 00:59:04,VALID,918.222,VALID,0,VALID,97.069,VALID,0,VALID,19.1373,VALID,15,VALID,0,
2012-06-09, 01:00:04,VALID,918.227,VALID,0,VALID,97.0918,VALID,0,VALID,19.1583,VALID,15,VALID,0,
2012-06-09, 01:01:04,VALID,918.192,VALID,0,VALID,97.1071,VALID,0,VALID,19.1373,VALID,15,VALID,0,
2012-06-09, 01:02:04,VALID,918.189,VALID,0,VALID,97.0842,VALID,0,VALID,19.1583,VALID,15,VALID,0,
2012-06-09, 01:03:04,VALID,918.223,VALID,0,VALID,97.0842,VALID,0,VALID,19.1178,VALID,15,VALID,0,
2012-06-09, 01:04:04,VALID,918.218,VALID,0,VALID,97.0918,VALID,0,VALID,19.1583,VALID,15,VALID,0,
2012-06-09, 01:05:04,VALID,918.214,VALID,0,VALID,97.0918,VALID,0,VALID,19.1388,VALID,15,VALID,0,
2012-06-09, 01:06:04,VALID,918.187,VALID,0,VALID,97.0918,VALID,0,VALID,19.1178,VALID,15,VALID,0,
2012-06-09, 01:07:04,VALID,918.169,VALID,0,VALID,97.0994,VALID,0,VALID,19.1178,VALID,15,VALID,0,
2012-06-09, 01:08:04,VALID,918.172,VALID,0,VALID,97.1147,VALID,0,VALID,19.1178,VALID,15,VALID,0,
2012-06-09, 01:09:04,VALID,918.156,VALID,0,VALID,97.1071,VALID,0,VALID,19.1178,VALID,15,VALID,0,
2012-06-09, 01:10:04,VALID,918.199,VALID,0,VALID,97.1223,VALID,0,VALID,19.1373,VALID,15,VALID,0,
2012-06-09, 01:11:04,VALID,918.176,VALID,0,VALID,97.1452,VALID,0.107441,VALID,19.1373,VALID,15,VALID,0,
2012-06-09, 01:12:04,VALID,918.173,VALID,0,VALID,97.1376,VALID,0,VALID,19.1178,VALID,15,VALID,0,
2012-06-09, 01:13:04,VALID,918.167,VALID,0,VALID,97.1376,VALID,0,VALID,19.1178,VALID,15,VALID,0,
2012-06-09, 01:14:04,VALID,918.185,VALID,0,VALID,97.1223,VALID,0,VALID,19.1583,VALID,15,VALID,0,
2012-06-09, 01:15:04,VALID,918.161,VALID,0,VALID,97.1071,VALID,0,VALID,19.1178,VALID,15,VALID,0,
2012-06-09, 01:16:04,VALID,918.112,VALID,0,VALID,97.1376,VALID,0,VALID,19.1178,VALID,15,VALID,0,
2012-06-09, 01:17:04,VALID,918.138,VALID,0,VALID,97.1452,VALID,0,VALID,19.1178,VALID,15,VALID,0,
2012-06-09, 01:18:04,VALID,918.096,VALID,0,VALID,97.1452,VALID,0,VALID,19.0983,VALID,15,VALID,0,
2012-06-09, 01:19:04,VALID,918.125,VALID,0,VALID,97.1681,VALID,0,VALID,19.1178,VALID,15,VALID,0,
2012-06-09, 01:20:04,VALID,918.101,VALID,0,VALID,97.1604,VALID,0,VALID,19.1178,VALID,15,VALID,0,
2012-06-09, 01:21:04,VALID,918.093,VALID,0,VALID,97.1376,VALID,0,VALID,19.1373,VALID,15,VALID,0,
2012-06-09, 01:22:04,VALID,918.075,VALID,0,VALID,97.1604,VALID,0,VALID,19.1178,VALID,43,VALID,0,
2012-06-09, 01:23:04,VALID,918.063,VALID,0,VALID,97.1833,VALID,0,VALID,19.1178,VALID,28,VALID,0,
2012-06-09, 01:24:04,VALID,918.075,VALID,0,VALID,97.1757,VALID,0,VALID,19.0969,VALID,28,VALID,0,
2012-06-09, 01:25:04,VALID,918.047,VALID,0,VALID,97.2062,VALID,0,VALID,19.1373,VALID,31,VALID,0,
2012-06-09, 01:26:04,VALID,918.052,VALID,0,VALID,97.2367,VALID,0,VALID,19.1373,VALID,34,VALID,0,
2012-06-09, 01:27:04,VALID,918.005,VALID,0,VALID,97.2062,VALID,0,VALID,19.1373,VALID,26,VALID,0,
2012-06-09, 01:28:04,VALID,917.984,VALID,0,VALID,97.2138,VALID,0,VALID,19.1373,VALID,22,VALID,0,
2012-06-09, 01:29:04,VALID,917.975,VALID,0,VALID,97.2367,VALID,0,VALID,19.1568,VALID,23,VALID,0,
2012-06-09, 01:30:04,VALID,917.987,VALID,0,VALID,97.2138,VALID,0,VALID,19.1763,VALID,22,VALID,0,
2012-06-09, 01:31:04,VALID,917.928,VALID,0,VALID,97.229,VALID,0.107441,VALID,19.1373,VALID,23,VALID,0,
2012-06-09, 01:32:04,VALID,917.925,VALID,0,VALID,97.2443,VALID,0,VALID,19.1568,VALID,31,VALID,0,
2012-06-09, 01:33:04,VALID,917.922,VALID,0,VALID,97.229,VALID,0,VALID,19.1568,VALID,30,VALID,0,
2012-06-09, 01:34:04,VALID,917.893,VALID,0,VALID,97.2519,VALID,0,VALID,19.1763,VALID,31,VALID,0,
2012-06-09, 01:35:04,VALID,917.877,VALID,0,VALID,97.2367,VALID,0,VALID,19.1958,VALID,31,VALID,0,
2012-06-09, 01:36:04,VALID,917.868,VALID,0,VALID,97.229,VALID,0,VALID,19.1568,VALID,28,VALID,0,
2012-06-09, 01:37:04,VALID,917.851,VALID,0,VALID,97.2062,VALID,0,VALID,19.1568,VALID,24,VALID,0,
2012-06-09, 01:38:04,VALID,917.818,VALID,0,VALID,97.2367,VALID,0,VALID,19.1568,VALID,17,VALID,0,
2012-06-09, 01:39:04,VALID,917.834,VALID,0,VALID,97.2519,VALID,0,VALID,19.1763,VALID,25,VALID,0,
2012-06-09, 01:40:04,VALID,917.825,VALID,0,VALID,97.2595,VALID,0.107441,VALID,19.1554,VALID,22,VALID,0,
2012-06-09, 01:41:04,VALID,917.787,VALID,0,VALID,97.2443,VALID,0,VALID,19.1568,VALID,22,VALID,0,
2012-06-09, 01:42:04,VALID,917.778,VALID,0,VALID,97.229,VALID,0,VALID,19.1568,VALID,24,VALID,0,
2012-06-09, 01:43:04,VALID,917.73,VALID,0,VALID,97.2443,VALID,0,VALID,19.1568,VALID,26,VALID,0,
2012-06-09, 01:44:04,VALID,917.733,VALID,0,VALID,97.2519,VALID,0,VALID,19.1568,VALID,51,VALID,0,
2012-06-09, 01:45:04,VALID,917.704,VALID,0,VALID,97.29,VALID,0,VALID,19.1568,VALID,28,VALID,0,
2012-06-09, 01:46:04,VALID,917.708,VALID,0,VALID,97.2519,VALID,0,VALID,19.1763,VALID,28,VALID,0,
2012-06-09, 01:47:04,VALID,917.706,VALID,0,VALID,97.2595,VALID,0,VALID,19.1373,VALID,28,VALID,0,
2012-06-09, 01:48:04,VALID,917.685,VALID,0,VALID,97.29,VALID,0,VALID,19.1568,VALID,28,VALID,0,
2012-06-09, 01:49:04,VALID,917.704,VALID,0,VALID,97.2748,VALID,0,VALID,19.1568,VALID,28,VALID,0,
2012-06-09, 01:50:04,VALID,917.718,VALID,0,VALID,97.2519,VALID,0.107441,VALID,19.1568,VALID,28,VALID,0,
2012-06-09, 01:51:04,VALID,917.718,VALID,0,VALID,97.2824,VALID,0,VALID,19.1763,VALID,28,VALID,0,
2012-06-09, 01:52:04,VALID,917.704,VALID,0,VALID,97.2977,VALID,0,VALID,19.1373,VALID,28,VALID,0,
2012-06-09, 01:53:04,VALID,917.707,VALID,0,VALID,97.2824,VALID,0,VALID,19.1568,VALID,360,VALID,0,
2012-06-09, 01:54:04,VALID,917.688,VALID,0,VALID,97.2672,VALID,0,VALID,19.1763,VALID,360,VALID,0,
2012-06-09, 01:55:04,VALID,917.699,VALID,0,VALID,97.2672,VALID,0,VALID,19.1763,VALID,24,VALID,0,
2012-06-09, 01:56:04,VALID,917.693,VALID,0,VALID,97.2595,VALID,0.107441,VALID,19.1568,VALID,4,VALID,0,
2012-06-09, 01:57:04,VALID,917.65,VALID,0,VALID,97.2748,VALID,0,VALID,19.1763,VALID,37,VALID,0,
2012-06-09, 01:58:04,VALID,917.599,VALID,0,VALID,97.3053,VALID,0,VALID,19.1958,VALID,13,VALID,0,
2012-06-09, 01:59:04,VALID,917.6,VALID,0,VALID,97.29,VALID,0,VALID,19.1763,VALID,357,VALID,0,
2012-06-09, 02:00:05,VALID,917.592,VALID,0,VALID,97.2748,VALID,0.107441,VALID,19.1763,VALID,16,VALID,0,
2012-06-09, 02:01:05,VALID,917.529,VALID,0,VALID,97.29,VALID,0,VALID,19.1568,VALID,16,VALID,0,
2012-06-09, 02:02:05,VALID,917.512,VALID,0,VALID,97.3053,VALID,0,VALID,19.1749,VALID,16,VALID,0,
2012-06-09, 02:03:05,VALID,917.497,VALID,0,VALID,97.3053,VALID,0,VALID,19.1749,VALID,16,VALID,0,
2012-06-09, 02:04:05,VALID,917.528,VALID,0,VALID,97.2595,VALID,0,VALID,19.1958,VALID,13,VALID,0,
2012-06-09, 02:05:05,VALID,917.523,VALID,0,VALID,97.2824,VALID,0,VALID,19.1554,VALID,32,VALID,0,
2012-06-09, 02:06:05,VALID,917.563,VALID,0,VALID,97.2977,VALID,0,VALID,19.1554,VALID,4,VALID,0.0078125,
2012-06-09, 02:07:05,VALID,917.544,VALID,0,VALID,97.2672,VALID,0.107441,VALID,19.1554,VALID,349,VALID,0,
2012-06-09, 02:08:05,VALID,917.581,VALID,0,VALID,97.2977,VALID,0.107441,VALID,19.1763,VALID,25,VALID,0,
2012-06-09, 02:09:05,VALID,917.567,VALID,0,VALID,97.29,VALID,0,VALID,19.1554,VALID,20,VALID,0,
2012-06-09, 02:10:05,VALID,917.551,VALID,0,VALID,97.3129,VALID,0.107441,VALID,19.1749,VALID,20,VALID,0,
2012-06-09, 02:11:05,VALID,917.554,VALID,0,VALID,97.3053,VALID,0,VALID,19.1763,VALID,346,VALID,0,
2012-06-09, 02:12:05,VALID,917.532,VALID,0,VALID,97.29,VALID,0,VALID,19.1554,VALID,24,VALID,0,
2012-06-09, 02:13:05,VALID,917.466,VALID,0,VALID,97.29,VALID,0,VALID,19.1958,VALID,20,VALID,0.000390625,
2012-06-09, 02:14:05,VALID,917.461,VALID,0,VALID,97.2977,VALID,0,VALID,19.1749,VALID,28,VALID,0,
2012-06-09, 02:15:05,VALID,917.442,VALID,0,VALID,97.2977,VALID,0,VALID,19.1763,VALID,32,VALID,0,
2012-06-09, 02:16:05,VALID,917.415,VALID,0,VALID,97.3053,VALID,0,VALID,19.1958,VALID,35,VALID,0,
2012-06-09, 02:17:05,VALID,917.415,VALID,0,VALID,97.3281,VALID,0,VALID,19.1763,VALID,27,VALID,0,
2012-06-09, 02:18:05,VALID,917.394,VALID,0,VALID,97.3129,VALID,0,VALID,19.1763,VALID,24,VALID,0,
2012-06-09, 02:19:05,VALID,917.4,VALID,0,VALID,97.3281,VALID,0,VALID,19.1749,VALID,21,VALID,0,
2012-06-09, 02:20:05,VALID,917.41,VALID,0,VALID,97.3205,VALID,0,VALID,19.1958,VALID,21,VALID,0,
2012-06-09, 02:21:05,VALID,917.405,VALID,0,VALID,97.3129,VALID,0,VALID,19.1958,VALID,21,VALID,0,
2012-06-09, 02:22:05,VALID,917.396,VALID,0,VALID,97.3358,VALID,0,VALID,19.2153,VALID,16,VALID,0,
2012-06-09, 02:23:05,VALID,917.39,VALID,0,VALID,97.3281,VALID,0,VALID,19.1749,VALID,16,VALID,0,
2012-06-09, 02:24:05,VALID,917.391,VALID,0,VALID,97.3434,VALID,0,VALID,19.1958,VALID,16,VALID,0,
2012-06-09, 02:25:05,VALID,917.398,VALID,0,VALID,97.3205,VALID,0,VALID,19.1763,VALID,25,VALID,0,
2012-06-09, 02:26:05,VALID,917.385,VALID,0,VALID,97.3358,VALID,0,VALID,19.1958,VALID,28,VALID,0,
2012-06-09, 02:27:05,VALID,917.373,VALID,0,VALID,97.3205,VALID,0,VALID,19.1763,VALID,28,VALID,0,
2012-06-09, 02:28:05,VALID,917.372,VALID,0,VALID,97.3205,VALID,0,VALID,19.1554,VALID,28,VALID,0,
2012-06-09, 02:29:05,VALID,917.399,VALID,0,VALID,97.3129,VALID,0.107441,VALID,19.1749,VALID,347,VALID,0,
2012-06-09, 02:30:05,VALID,917.418,VALID,0,VALID,97.3053,VALID,0,VALID,19.1763,VALID,301,VALID,0,
2012-06-09, 02:31:05,VALID,917.453,VALID,0,VALID,97.3129,VALID,0.107441,VALID,19.1359,VALID,353,VALID,0,
2012-06-09, 02:32:05,VALID,917.486,VALID,0,VALID,97.3281,VALID,0.107441,VALID,19.1554,VALID,353,VALID,0,
2012-06-09, 02:33:05,VALID,917.493,VALID,0,VALID,97.3358,VALID,0,VALID,19.1763,VALID,269,VALID,0,
2012-06-09, 02:34:05,VALID,917.502,VALID,0,VALID,97.351,VALID,0,VALID,19.1958,VALID,244,VALID,0,
2012-06-09, 02:35:05,VALID,917.517,VALID,0,VALID,97.351,VALID,0,VALID,19.1763,VALID,244,VALID,0,
2012-06-09, 02:36:05,VALID,917.525,VALID,0,VALID,97.351,VALID,0,VALID,19.1763,VALID,244,VALID,0,
2012-06-09, 02:37:05,VALID,917.505,VALID,0,VALID,97.3358,VALID,0,VALID,19.1554,VALID,244,VALID,0,
2012-06-09, 02:38:05,VALID,917.513,VALID,0,VALID,97.351,VALID,0,VALID,19.1763,VALID,244,VALID,0,
2012-06-09, 02:39:05,VALID,917.492,VALID,0,VALID,97.3205,VALID,0.107441,VALID,19.1359,VALID,244,VALID,0,
2012-06-09, 02:40:05,VALID,917.479,VALID,0,VALID,97.351,VALID,0,VALID,19.1568,VALID,244,VALID,0,
2012-06-09, 02:41:05,VALID,917.46,VALID,0,VALID,97.351,VALID,0,VALID,19.1568,VALID,244,VALID,0,
2012-06-09, 02:42:05,VALID,917.425,VALID,0,VALID,97.3434,VALID,0.107441,VALID,19.1359,VALID,334,VALID,0,
2012-06-09, 02:43:05,VALID,917.412,VALID,0,VALID,97.3434,VALID,0.107441,VALID,19.1763,VALID,3,VALID,0,
2012-06-09, 02:44:05,VALID,917.422,VALID,0,VALID,97.3663,VALID,0.107441,VALID,19.1554,VALID,27,VALID,0,
2012-06-09, 02:45:05,VALID,917.418,VALID,0,VALID,97.3358,VALID,0,VALID,19.1763,VALID,27,VALID,0,
2012-06-09, 02:46:05,VALID,917.372,VALID,0,VALID,97.3586,VALID,0,VALID,19.1763,VALID,26,VALID,0,
2012-06-09, 02:47:05,VALID,917.408,VALID,0,VALID,97.3358,VALID,0,VALID,19.1359,VALID,24,VALID,0,
2012-06-09, 02:48:05,VALID,917.376,VALID,0,VALID,97.3434,VALID,0,VALID,19.1554,VALID,24,VALID,0,
2012-06-09, 02:49:05,VALID,917.363,VALID,0,VALID,97.351,VALID,0,VALID,19.1568,VALID,43,VALID,0,
2012-06-09, 02:50:05,VALID,917.347,VALID,0,VALID,97.3281,VALID,0,VALID,19.1568,VALID,16,VALID,0,
2012-06-09, 02:51:05,VALID,917.35,VALID,0,VALID,97.351,VALID,0.107441,VALID,19.1763,VALID,37,VALID,0,
2012-06-09, 02:52:05,VALID,917.341,VALID,0,VALID,97.3434,VALID,0,VALID,19.1763,VALID,45,VALID,0,
2012-06-09, 02:53:05,VALID,917.331,VALID,0,VALID,97.351,VALID,0,VALID,19.1763,VALID,16,VALID,0,
2012-06-09, 02:54:05,VALID,917.33,VALID,0,VALID,97.351,VALID,0,VALID,19.1359,VALID,16,VALID,0,
2012-06-09, 02:55:05,VALID,917.322,VALID,0,VALID,97.3663,VALID,0,VALID,19.1359,VALID,16,VALID,0,
2012-06-09, 02:56:05,VALID,917.31,VALID,0,VALID,97.3434,VALID,0,VALID,19.1373,VALID,16,VALID,0,
2012-06-09, 02:57:05,VALID,917.326,VALID,0,VALID,97.3434,VALID,0,VALID,19.1359,VALID,15,VALID,0,
2012-06-09, 02:58:05,VALID,917.3,VALID,0,VALID,97.3358,VALID,0,VALID,19.1178,VALID,8,VALID,0,
2012-06-09, 02:59:05,VALID,917.316,VALID,0,VALID,97.3434,VALID,0,VALID,19.1164,VALID,8,VALID,0,
2012-06-09, 03:00:05,VALID,917.336,VALID,0,VALID,97.3434,VALID,0,VALID,19.1178,VALID,9,VALID,0,
2012-06-09, 03:01:05,VALID,917.323,VALID,0,VALID,97.3053,VALID,0,VALID,19.0983,VALID,9,VALID,0,
2012-06-09, 03:02:05,VALID,917.309,VALID,0,VALID,97.351,VALID,0,VALID,19.1178,VALID,9,VALID,0,
2012-06-09, 03:03:05,VALID,917.268,VALID,0,VALID,97.3205,VALID,0,VALID,19.1178,VALID,9,VALID,0,
2012-06-09, 03:04:05,VALID,917.304,VALID,0,VALID,97.3129,VALID,0,VALID,19.0983,VALID,9,VALID,0,
2012-06-09, 03:05:05,VALID,917.268,VALID,0,VALID,97.351,VALID,0,VALID,19.0969,VALID,9,VALID,0,
2012-06-09, 03:06:05,VALID,917.259,VALID,0,VALID,97.3358,VALID,0,VALID,19.1178,VALID,9,VALID,0,
2012-06-09, 03:07:05,VALID,917.263,VALID,0,VALID,97.351,VALID,0,VALID,19.1373,VALID,9,VALID,0,
2012-06-09, 03:08:05,VALID,917.263,VALID,0,VALID,97.3586,VALID,0,VALID,19.1373,VALID,9,VALID,0,
2012-06-09, 03:09:05,VALID,917.244,VALID,0,VALID,97.3586,VALID,0,VALID,19.1373,VALID,9,VALID,0,
2012-06-09, 03:10:05,VALID,917.232,VALID,0,VALID,97.3434,VALID,0,VALID,19.1373,VALID,9,VALID,0,
2012-06-09, 03:11:05,VALID,917.214,VALID,0,VALID,97.3281,VALID,0,VALID,19.1373,VALID,9,VALID,0,
2012-06-09, 03:12:05,VALID,917.238,VALID,0,VALID,97.3358,VALID,0,VALID,19.1178,VALID,9,VALID,0,
2012-06-09, 03:13:05,VALID,917.215,VALID,0,VALID,97.3434,VALID,0,VALID,19.1178,VALID,28,VALID,0,
2012-06-09, 03:14:05,VALID,917.232,VALID,0,VALID,97.3434,VALID,0,VALID,19.1178,VALID,28,VALID,0,
2012-06-09, 03:15:05,VALID,917.247,VALID,0,VALID,97.3358,VALID,0,VALID,19.1987,VALID,28,VALID,0,
2012-06-09, 03:16:05,VALID,917.244,VALID,0,VALID,97.351,VALID,0,VALID,19.1149,VALID,28,VALID,0,
2012-06-09, 03:17:05,VALID,917.251,VALID,0,VALID,97.3129,VALID,0,VALID,19.1778,VALID,17,VALID,0,
2012-06-09, 03:18:05,VALID,917.26,VALID,0,VALID,97.3205,VALID,0,VALID,19.1597,VALID,23,VALID,0,
2012-06-09, 03:19:05,VALID,917.28,VALID,0,VALID,97.2977,VALID,0,VALID,19.0954,VALID,14,VALID,0,
2012-06-09, 03:20:05,VALID,917.289,VALID,0,VALID,97.29,VALID,0,VALID,19.1178,VALID,22,VALID,0,
2012-06-09, 03:21:05,VALID,917.302,VALID,0,VALID,97.3053,VALID,0,VALID,19.0564,VALID,22,VALID,0,
2012-06-09, 03:22:05,VALID,917.328,VALID,0,VALID,97.2977,VALID,0,VALID,19.016,VALID,22,VALID,0,
2012-06-09, 03:23:05,VALID,917.301,VALID,0,VALID,97.3205,VALID,0,VALID,19.1193,VALID,22,VALID,0,
2012-06-09, 03:24:05,VALID,917.343,VALID,0,VALID,97.2824,VALID,0,VALID,19.2017,VALID,22,VALID,0,
2012-06-09, 03:25:05,VALID,917.377,VALID,0,VALID,97.2595,VALID,0,VALID,19.0579,VALID,31,VALID,0,
2012-06-09, 03:26:05,VALID,917.421,VALID,0,VALID,97.2595,VALID,0,VALID,19.0983,VALID,31,VALID,0,
2012-06-09, 03:27:05,VALID,917.476,VALID,0,VALID,97.2748,VALID,0,VALID,19.1193,VALID,31,VALID,0,
2012-06-09, 03:28:05,VALID,917.497,VALID,0,VALID,97.29,VALID,0,VALID,19.0579,VALID,31,VALID,0,
2012-06-09, 03:29:05,VALID,917.494,VALID,0,VALID,97.2367,VALID,0,VALID,19.0564,VALID,31,VALID,0,
2012-06-09, 03:30:05,VALID,917.484,VALID,0,VALID,97.2595,VALID,0,VALID,19.0579,VALID,20,VALID,0,
2012-06-09, 03:31:05,VALID,917.471,VALID,0,VALID,97.2519,VALID,0.107441,VALID,19.0579,VALID,20,VALID,0,
2012-06-09, 03:32:05,VALID,917.468,VALID,0,VALID,97.2672,VALID,0,VALID,19.0998,VALID,20,VALID,0,
2012-06-09, 03:33:05,VALID,917.442,VALID,0,VALID,97.2672,VALID,0,VALID,19.0983,VALID,20,VALID,0,
2012-06-09, 03:34:05,VALID,917.435,VALID,0,VALID,97.2367,VALID,0,VALID,19.0817,VALID,25,VALID,0,
2012-06-09, 03:35:05,VALID,917.435,VALID,0,VALID,97.2595,VALID,0,VALID,18.998,VALID,10,VALID,0,
2012-06-09, 03:36:05,VALID,917.481,VALID,0,VALID,97.2595,VALID,0,VALID,19.0608,VALID,5,VALID,0,
2012-06-09, 03:37:05,VALID,917.491,VALID,0,VALID,97.2748,VALID,0,VALID,19.0413,VALID,24,VALID,0,
2012-06-09, 03:38:05,VALID,917.531,VALID,0,VALID,97.2519,VALID,0,VALID,19.0218,VALID,9,VALID,0,
2012-06-09, 03:39:05,VALID,917.562,VALID,0,VALID,97.2824,VALID,0,VALID,18.998,VALID,4,VALID,0,
2012-06-09, 03:40:05,VALID,917.608,VALID,0,VALID,97.29,VALID,0.107441,VALID,19.0622,VALID,4,VALID,0,
2012-06-09, 03:41:05,VALID,917.645,VALID,0,VALID,97.2977,VALID,0,VALID,18.9785,VALID,358,VALID,0,
2012-06-09, 03:42:05,VALID,917.642,VALID,0,VALID,97.29,VALID,0,VALID,18.977,VALID,349,VALID,0,
2012-06-09, 03:43:05,VALID,917.626,VALID,0,VALID,97.2824,VALID,0,VALID,19.0413,VALID,354,VALID,0,
2012-06-09, 03:44:05,VALID,917.604,VALID,0,VALID,97.2824,VALID,0,VALID,19.0622,VALID,5,VALID,0,
2012-06-09, 03:45:05,VALID,917.599,VALID,0,VALID,97.2824,VALID,0,VALID,18.959,VALID,16,VALID,0,
2012-06-09, 03:46:05,VALID,917.583,VALID,0,VALID,97.2824,VALID,0,VALID,18.9785,VALID,18,VALID,0,
2012-06-09, 03:47:05,VALID,917.589,VALID,0,VALID,97.3053,VALID,0,VALID,18.9171,VALID,16,VALID,0,
2012-06-09, 03:48:05,VALID,917.595,VALID,0,VALID,97.2672,VALID,0,VALID,18.9799,VALID,359,VALID,0,
2012-06-09, 03:49:05,VALID,917.594,VALID,0,VALID,97.2977,VALID,0,VALID,19.0218,VALID,5,VALID,0,
2012-06-09, 03:50:05,VALID,917.629,VALID,0,VALID,97.2672,VALID,0,VALID,19.0203,VALID,1,VALID,0,
2012-06-09, 03:51:05,VALID,917.666,VALID,0,VALID,97.2748,VALID,0,VALID,18.9575,VALID,1,VALID,0,
2012-06-09, 03:52:05,VALID,917.666,VALID,0,VALID,97.2748,VALID,0,VALID,19.0413,VALID,3,VALID,0,
2012-06-09, 03:53:05,VALID,917.666,VALID,0,VALID,97.2443,VALID,0,VALID,19.0023,VALID,12,VALID,0,
2012-06-09, 03:54:05,VALID,917.688,VALID,0,VALID,97.2443,VALID,0,VALID,19.0023,VALID,12,VALID,0,
2012-06-09, 03:55:05,VALID,917.697,VALID,0,VALID,97.229,VALID,0,VALID,18.959,VALID,13,VALID,0,
2012-06-09, 03:56:05,VALID,917.755,VALID,0,VALID,97.2138,VALID,0,VALID,18.9799,VALID,12,VALID,0,
2012-06-09, 03:57:05,VALID,917.725,VALID,0,VALID,97.2214,VALID,0,VALID,18.959,VALID,12,VALID,0,
2012-06-09, 03:58:05,VALID,917.763,VALID,0,VALID,97.1986,VALID,0,VALID,18.9994,VALID,12,VALID,0,
2012-06-09, 03:59:05,VALID,917.759,VALID,0,VALID,97.2214,VALID,0,VALID,19.0413,VALID,12,VALID,0,
2012-06-09, 04:00:05,VALID,917.792,VALID,0,VALID,97.2214,VALID,0,VALID,19.0413,VALID,12,VALID,0,
2012-06-09, 04:01:05,VALID,917.791,VALID,0,VALID,97.1909,VALID,0,VALID,19.0203,VALID,12,VALID,0,